Tracking 28518 objects as of 2-Mar-2024
HD Live streaming from Space Station
objects crossing your sky now

LEMUR 2 JK0903EM1407

Track LEMUR 2 JK0903EM1407 now!
10-day predictions
LEMUR 2 JK0903EM1407 is classified as:


NORAD ID: 58336
Int'l Code: 2023-174CJ
Perigee: 514.8 km
Apogee: 527.5 km
Inclination: 97.5 °
Period: 94.9 minutes
Semi major axis: 6892 km
RCS: Unknown
Launch date: November 11, 2023
Source: United States (US)
Launch site: AIR FORCE WESTERN TEST RANGE (AFWTR)
Your satellite tracking list
Your tracking list is empty




NASA's NSSDC Master Catalog

Two Line Element Set (TLE):
1 58336U 23174CJ  24061.77110411  .00009469  00000-0  47772-3 0  9995
2 58336  97.4618 137.9874 0009203 215.3365 144.7260 15.17301775 17425
Source of the keplerian elements: AFSPC